Time,TemperatureF,DewpointF,PressureIn,WindDirection,WindDirectionDegrees,WindSpeedMPH,WindSpeedGustMPH,Humidity,HourlyPrecipIn,Conditions,Clouds,dailyrainin,SoftwareType,DateUTC
2013-02-24 00:11:00,20.3,16.8,29.77,South,180,0.0,-999.0,86,-99.99,,,0.00,Acu-Link.com,2013-02-24 06:11:00,
2013-02-24 00:27:00,19.9,16.7,29.78,South,180,0.0,-999.0,87,-99.99,,,0.00,Acu-Link.com,2013-02-24 06:27:00,
2013-02-24 00:42:00,19.9,16.7,29.78,South,180,0.0,-999.0,87,-99.99,,,0.00,Acu-Link.com,2013-02-24 06:42:00,
2013-02-24 00:57:00,19.9,16.7,29.78,South,180,0.0,-999.0,87,-99.99,,,0.00,Acu-Link.com,2013-02-24 06:57:00,
2013-02-24 01:12:00,20.1,16.9,29.80,South,180,0.0,-999.0,87,-99.99,,,0.00,Acu-Link.com,2013-02-24 07:12:00,
2013-02-24 01:28:00,19.8,16.6,29.79,South,180,0.0,-999.0,87,-99.99,,,0.00,Acu-Link.com,2013-02-24 07:28:00,
2013-02-24 01:43:00,19.8,16.6,29.79,South,180,0.0,-999.0,87,-99.99,,,0.00,Acu-Link.com,2013-02-24 07:43:00,
2013-02-24 01:58:00,19.9,16.7,29.79,South,180,0.0,-999.0,87,-99.99,,,0.00,Acu-Link.com,2013-02-24 07:58:00,
2013-02-24 02:13:00,19.8,16.6,29.79,South,180,0.0,-999.0,87,-99.99,,,0.00,Acu-Link.com,2013-02-24 08:13:00,
2013-02-24 02:29:00,19.4,16.4,29.79,South,180,0.0,-999.0,88,-99.99,,,0.00,Acu-Link.com,2013-02-24 08:29:00,
2013-02-24 02:44:00,19.2,16.2,29.79,South,180,0.0,-999.0,88,-99.99,,,0.00,Acu-Link.com,2013-02-24 08:44:00,
2013-02-24 02:59:00,19.2,16.2,29.79,South,180,0.0,-999.0,88,-99.99,,,0.00,Acu-Link.com,2013-02-24 08:59:00,
2013-02-24 03:18:00,19.2,16.2,29.79,South,180,0.0,-999.0,88,-99.99,,,0.00,Acu-Link.com,2013-02-24 09:18:00,
2013-02-24 03:33:00,18.9,15.9,29.79,South,180,0.0,-999.0,88,-99.99,,,0.00,Acu-Link.com,2013-02-24 09:33:00,
2013-02-24 03:48:00,18.7,15.7,29.80,South,180,0.0,-999.0,88,-99.99,,,0.00,Acu-Link.com,2013-02-24 09:48:00,
2013-02-24 04:03:00,18.7,16.0,29.80,South,180,0.0,-999.0,89,-99.99,,,0.00,Acu-Link.com,2013-02-24 10:03:00,
2013-02-24 04:19:00,18.5,15.8,29.81,South,180,0.0,-999.0,89,-99.99,,,0.00,Acu-Link.com,2013-02-24 10:19:00,
2013-02-24 04:34:00,18.3,15.6,29.81,South,180,0.0,-999.0,89,-99.99,,,0.00,Acu-Link.com,2013-02-24 10:34:00,
2013-02-24 04:49:00,18.1,15.4,29.82,South,180,0.0,-999.0,89,-99.99,,,0.00,Acu-Link.com,2013-02-24 10:49:00,
2013-02-24 05:04:00,18.0,15.6,29.83,South,180,0.0,-999.0,90,-99.99,,,0.00,Acu-Link.com,2013-02-24 11:04:00,
2013-02-24 05:19:00,17.6,15.4,29.83,South,180,0.0,-999.0,91,-99.99,,,0.00,Acu-Link.com,2013-02-24 11:19:00,
2013-02-24 05:35:00,17.6,15.4,29.83,South,180,0.0,-999.0,91,-99.99,,,0.00,Acu-Link.com,2013-02-24 11:35:00,
2013-02-24 05:50:00,17.2,15.0,29.83,South,180,0.0,-999.0,91,-99.99,,,0.00,Acu-Link.com,2013-02-24 11:50:00,
2013-02-24 06:05:00,17.1,15.2,29.83,South,180,0.0,-999.0,92,-99.99,,,0.00,Acu-Link.com,2013-02-24 12:05:00,
2013-02-24 06:20:00,16.7,14.8,29.84,South,180,0.0,-999.0,92,-99.99,,,0.00,Acu-Link.com,2013-02-24 12:20:00,
2013-02-24 06:36:00,16.2,14.5,29.84,South,180,0.0,-999.0,93,-99.99,,,0.00,Acu-Link.com,2013-02-24 12:36:00,
2013-02-24 06:51:00,16.7,15.3,29.85,South,180,0.0,-999.0,94,-99.99,,,0.00,Acu-Link.com,2013-02-24 12:51:00,
2013-02-24 07:06:00,17.6,15.7,29.86,South,180,0.0,-999.0,92,-99.99,,,0.00,Acu-Link.com,2013-02-24 13:06:00,
2013-02-24 07:21:00,18.0,15.8,29.87,South,180,0.0,-999.0,91,-99.99,,,0.00,Acu-Link.com,2013-02-24 13:21:00,
2013-02-24 07:37:00,18.9,16.5,29.87,South,180,0.0,-999.0,90,-99.99,,,0.00,Acu-Link.com,2013-02-24 13:37:00,
2013-02-24 07:52:00,21.7,17.6,29.88,South,180,0.0,-999.0,84,-99.99,,,0.00,Acu-Link.com,2013-02-24 13:52:00,
2013-02-24 08:07:00,23.4,18.4,29.89,South,180,0.0,-999.0,81,-99.99,,,0.00,Acu-Link.com,2013-02-24 14:07:00,
2013-02-24 08:22:00,25.7,19.2,29.89,South,180,0.0,-999.0,76,-99.99,,,0.00,Acu-Link.com,2013-02-24 14:22:00,
2013-02-24 08:37:00,25.9,18.8,29.89,South,180,0.0,-999.0,74,-99.99,,,0.00,Acu-Link.com,2013-02-24 14:37:00,
2013-02-24 08:52:00,27.1,19.6,29.89,South,180,0.0,-999.0,73,-99.99,,,0.00,Acu-Link.com,2013-02-24 14:52:00,
2013-02-24 09:07:00,27.1,19.9,29.90,South,180,0.0,-999.0,74,-99.99,,,0.00,Acu-Link.com,2013-02-24 15:07:00,
2013-02-24 09:23:00,28.2,20.7,29.89,South,180,0.0,-999.0,73,-99.99,,,0.00,Acu-Link.com,2013-02-24 15:23:00,
2013-02-24 09:38:00,28.4,21.2,29.89,East,90,0.0,-999.0,74,-99.99,,,0.00,Acu-Link.com,2013-02-24 15:38:00,
2013-02-24 09:53:00,28.8,21.6,29.89,East,90,0.0,-999.0,74,-99.99,,,0.00,Acu-Link.com,2013-02-24 15:53:00,
2013-02-24 10:08:00,30.6,22.3,29.89,East,90,0.0,-999.0,71,-99.99,,,0.00,Acu-Link.com,2013-02-24 16:08:00,
2013-02-24 10:24:00,30.7,21.8,29.89,East,90,5.3,-999.0,69,-99.99,,,0.00,Acu-Link.com,2013-02-24 16:24:00,
2013-02-24 10:39:00,30.6,21.7,29.90,East,90,0.0,-999.0,69,-99.99,,,0.00,Acu-Link.com,2013-02-24 16:39:00,
2013-02-24 10:54:00,31.1,21.1,29.90,East,90,2.7,-999.0,66,-99.99,,,0.00,Acu-Link.com,2013-02-24 16:54:00,
2013-02-24 11:09:00,32.9,22.4,29.90,East,90,1.1,-999.0,65,-99.99,,,0.00,Acu-Link.com,2013-02-24 17:09:00,
2013-02-24 11:25:00,33.8,22.6,29.89,East,90,4.7,-999.0,63,-99.99,,,0.00,Acu-Link.com,2013-02-24 17:25:00,
2013-02-24 11:40:00,34.3,22.7,29.89,East,90,0.0,-999.0,62,-99.99,,,0.00,Acu-Link.com,2013-02-24 17:40:00,
2013-02-24 11:55:00,34.9,22.8,29.89,East,90,0.0,-999.0,61,-99.99,,,0.00,Acu-Link.com,2013-02-24 17:55:00,
2013-02-24 12:10:00,36.5,23.6,29.89,SE,135,0.0,-999.0,59,-99.99,,,0.00,Acu-Link.com,2013-02-24 18:10:00,
2013-02-24 12:26:00,39.2,24.4,29.89,WSW,247,3.2,-999.0,55,-99.99,,,0.00,Acu-Link.com,2013-02-24 18:26:00,
2013-02-24 12:41:00,37.6,24.2,29.89,South,180,1.7,-999.0,58,-99.99,,,0.00,Acu-Link.com,2013-02-24 18:41:00,
2013-02-24 12:56:00,39.4,24.2,29.88,South,180,0.0,-999.0,54,-99.99,,,0.00,Acu-Link.com,2013-02-24 18:56:00,
2013-02-24 13:12:00,37.2,23.4,29.88,ESE,112,1.1,-999.0,57,-99.99,,,0.00,Acu-Link.com,2013-02-24 19:12:00,
2013-02-24 13:27:00,38.8,24.5,29.88,WSW,247,0.0,-999.0,56,-99.99,,,0.00,Acu-Link.com,2013-02-24 19:27:00,
2013-02-24 13:42:00,38.8,24.0,29.88,SSE,157,0.0,-999.0,55,-99.99,,,0.00,Acu-Link.com,2013-02-24 19:42:00,
2013-02-24 13:57:00,39.0,24.7,29.87,SE,135,0.0,-999.0,56,-99.99,,,0.01,Acu-Link.com,2013-02-24 19:57:00,
2013-02-24 14:13:00,40.6,25.7,29.87,South,180,0.0,-999.0,55,-99.99,,,0.02,Acu-Link.com,2013-02-24 20:13:00,
2013-02-24 14:28:00,39.2,25.3,29.87,East,90,0.0,-999.0,57,-99.99,,,0.04,Acu-Link.com,2013-02-24 20:28:00,
2013-02-24 14:43:00,40.5,26.1,29.86,South,180,3.7,-999.0,56,-99.99,,,0.05,Acu-Link.com,2013-02-24 20:43:00,
2013-02-24 14:58:00,39.7,26.2,29.87,South,180,0.0,-999.0,58,-99.99,,,0.09,Acu-Link.com,2013-02-24 20:58:00,
2013-02-24 15:14:00,39.9,25.9,29.87,South,180,3.2,-999.0,57,-99.99,,,0.10,Acu-Link.com,2013-02-24 21:14:00,
2013-02-24 15:29:00,39.6,25.6,29.86,SSE,157,1.1,-999.0,57,-99.99,,,0.11,Acu-Link.com,2013-02-24 21:29:00,
2013-02-24 15:44:00,38.3,25.2,29.86,ESE,112,0.0,-999.0,59,-99.99,,,0.12,Acu-Link.com,2013-02-24 21:44:00,
2013-02-24 16:00:00,38.5,25.8,29.86,SE,135,3.2,-999.0,60,-99.99,,,0.12,Acu-Link.com,2013-02-24 22:00:00,
2013-02-24 16:15:00,39.9,25.9,29.86,SE,135,0.0,-999.0,57,-99.99,,,0.13,Acu-Link.com,2013-02-24 22:15:00,
2013-02-24 16:30:00,38.1,25.9,29.86,ESE,112,0.0,-999.0,61,-99.99,,,0.13,Acu-Link.com,2013-02-24 22:30:00,
2013-02-24 16:45:00,37.2,26.2,29.86,ESE,112,0.0,-999.0,64,-99.99,,,0.13,Acu-Link.com,2013-02-24 22:45:00,
2013-02-24 17:01:00,36.1,25.5,29.86,ESE,112,0.0,-999.0,65,-99.99,,,0.13,Acu-Link.com,2013-02-24 23:01:00,
2013-02-24 17:16:00,35.4,25.2,29.86,ESE,112,0.0,-999.0,66,-99.99,,,0.13,Acu-Link.com,2013-02-24 23:16:00,
2013-02-24 17:31:00,34.3,25.2,29.86,ESE,112,0.0,-999.0,69,-99.99,,,0.13,Acu-Link.com,2013-02-24 23:31:00,
2013-02-24 17:47:00,33.4,24.7,29.86,ESE,112,0.0,-999.0,70,-99.99,,,0.13,Acu-Link.com,2013-02-24 23:47:00,
2013-02-24 18:02:00,32.0,24.3,29.86,ESE,112,0.0,-999.0,73,-99.99,,,0.13,Acu-Link.com,2013-02-25 00:02:00,
2013-02-24 18:17:00,30.9,24.6,29.86,ESE,112,0.0,-999.0,77,-99.99,,,0.13,Acu-Link.com,2013-02-25 00:17:00,
2013-02-24 18:33:00,29.8,24.1,29.87,ESE,112,0.0,-999.0,79,-99.99,,,0.13,Acu-Link.com,2013-02-25 00:33:00,
2013-02-24 18:48:00,29.3,24.5,29.88,ESE,112,0.0,-999.0,82,-99.99,,,0.13,Acu-Link.com,2013-02-25 00:48:00,
2013-02-24 19:03:00,28.8,24.3,29.88,ESE,112,0.0,-999.0,83,-99.99,,,0.13,Acu-Link.com,2013-02-25 01:03:00,
2013-02-24 19:18:00,28.4,24.2,29.88,ESE,112,0.0,-999.0,84,-99.99,,,0.13,Acu-Link.com,2013-02-25 01:18:00,
2013-02-24 19:34:00,28.2,24.3,29.88,ESE,112,0.0,-999.0,85,-99.99,,,0.13,Acu-Link.com,2013-02-25 01:34:00,
2013-02-24 19:49:00,28.4,24.8,29.88,ESE,112,0.0,-999.0,86,-99.99,,,0.13,Acu-Link.com,2013-02-25 01:49:00,
2013-02-24 20:04:00,28.4,25.0,29.89,ESE,112,0.0,-999.0,87,-99.99,,,0.13,Acu-Link.com,2013-02-25 02:04:00,
2013-02-24 20:19:00,28.2,25.1,29.89,ESE,112,0.0,-999.0,88,-99.99,,,0.13,Acu-Link.com,2013-02-25 02:19:00,
2013-02-24 20:35:00,28.2,25.1,29.89,ESE,112,0.0,-999.0,88,-99.99,,,0.13,Acu-Link.com,2013-02-25 02:35:00,
2013-02-24 20:50:00,28.2,25.1,29.88,ESE,112,0.0,-999.0,88,-99.99,,,0.13,Acu-Link.com,2013-02-25 02:50:00,
2013-02-24 21:05:00,28.2,25.1,29.89,ESE,112,0.0,-999.0,88,-99.99,,,0.13,Acu-Link.com,2013-02-25 03:05:00,
2013-02-24 21:21:00,28.0,25.2,29.89,ESE,112,0.0,-999.0,89,-99.99,,,0.13,Acu-Link.com,2013-02-25 03:21:00,
2013-02-24 21:36:00,27.9,25.6,29.90,ESE,112,0.0,-999.0,91,-99.99,,,0.13,Acu-Link.com,2013-02-25 03:36:00,
2013-02-24 21:51:00,28.0,25.5,29.89,ESE,112,0.0,-999.0,90,-99.99,,,0.13,Acu-Link.com,2013-02-25 03:51:00,
2013-02-24 22:06:00,28.0,25.7,29.90,ESE,112,0.0,-999.0,91,-99.99,,,0.13,Acu-Link.com,2013-02-25 04:06:00,
2013-02-24 22:22:00,28.0,25.7,29.90,ESE,112,0.0,-999.0,91,-99.99,,,0.13,Acu-Link.com,2013-02-25 04:22:00,
2013-02-24 22:37:00,27.9,25.4,29.89,ESE,112,0.0,-999.0,90,-99.99,,,0.13,Acu-Link.com,2013-02-25 04:37:00,
2013-02-24 22:52:00,27.3,24.8,29.89,ESE,112,0.0,-999.0,90,-99.99,,,0.13,Acu-Link.com,2013-02-25 04:52:00,
2013-02-24 23:07:00,27.1,24.8,29.89,ESE,112,0.0,-999.0,91,-99.99,,,0.13,Acu-Link.com,2013-02-25 05:07:00,
2013-02-24 23:23:00,26.6,24.3,29.89,ESE,112,0.0,-999.0,91,-99.99,,,0.13,Acu-Link.com,2013-02-25 05:23:00,
2013-02-24 23:38:00,26.1,24.4,29.89,ESE,112,0.0,-999.0,93,-99.99,,,0.13,Acu-Link.com,2013-02-25 05:38:00,
2013-02-24 23:53:00,26.1,24.4,29.88,ESE,112,0.0,-999.0,93,-99.99,,,0.13,Acu-Link.com,2013-02-25 05:53:00,